Location: Spring Creek
(38.2870°N, 100.2160°W)
Time: 21:19:14
(UTC+00:00)

Landsat 7 - Visible Passes

Search period start: 19 September 2021 00:00
Search period end: 29 September 2021 00:00
Orbit: 701 x 703 km, 98.0° (Epoch: 19 September)

Date Brightness Start Highest point End Pass type
(mag) Time Alt. Az. Time Alt. Az. Time Alt. Az.
19 Sep 5.2 02:39:22 25° NE 02:39:22 25° NE 02:42:00 10° N visible
19 Sep 6.5 04:18:15 17° NW 04:18:15 17° NW 04:19:35 10° NW visible
20 Sep 5.3 03:22:40 31° N 03:22:40 31° N 03:25:10 10° N visible
21 Sep 5.5 02:27:06 19° NE 02:27:06 19° NE 02:29:17 10° NNE visible
21 Sep 6.3 04:05:59 19° NW 04:05:59 19° NW 04:07:29 10° NNW visible
22 Sep 5.3 03:10:25 28° N 03:10:25 28° N 03:12:42 10° N visible
23 Sep 5.7 02:14:51 15° NE 02:14:51 15° NE 02:16:24 10° NNE visible
23 Sep 6.2 03:53:44 20° NNW 03:53:44 20° NNW 03:55:17 10° NNW visible
24 Sep 5.5 02:58:09 24° NNE 02:58:09 24° NNE 03:00:11 10° N visible
25 Sep 6.0 02:02:35 12° NE 02:02:35 12° NE 02:03:15 10° NE visible
25 Sep 6.1 03:41:28 20° NNW 03:41:28 20° NNW 03:43:00 10° NNW visible
26 Sep 5.6 02:45:54 20° NNE 02:45:54 20° NNE 02:47:36 10° N visible
26 Sep 6.9 04:24:47 10° NW 04:24:47 10° NW 04:24:52 10° NW visible
27 Sep 6.0 03:29:13 20° NNW 03:29:13 20° NNW 03:30:38 10° NNW visible
28 Sep 5.8 02:33:39 16° NNE 02:33:39 16° NNE 02:34:55 10° NNE visible
28 Sep 6.8 04:12:32 11° NW 04:12:32 11° NW 04:12:50 10° NW visible
